Regional Weather Roundup
Issued by NWS

Home | Current Version | Previous Version | Graphics & Text | Print | Product List | Glossary Off
Versions: 1 2 3 4 5 6 7 8 9 10 11 12 13 14 15 16 17 18 19 20 21 22 23 24 25 26 27 28 29 30 31 32 33 34 35 36 37 38 39 40 41 42 43 44 45 46 47 48 49 50

000
ASUS43 KOAX 281410
RWRNE

WEATHER ROUNDUP FOR NEBRASKA
NATIONAL WEATHER SERVICE OMAHA NE
800 AM CST WED JAN 28 2015

NOTES: SATELLITE DATA IS BEING USED TO AUGMENT CLOUD COVER ABOVE
       12000 FEET.
       "FAIR" INDICATES FEW OR NO CLOUDS BELOW 12,000 FEET WITH NO
       SIGNIFICANT WEATHER AND/OR OBSTRUCTIONS TO VISIBILITY.

  * THESE STATIONS DO NOT REPORT WEATHER SUCH AS RAIN...SNOW OR FOG.

NEZ001>004-019>022-054>056-281500-
NEBRASKA PANHANDLE

CITY           SKY/WX    TMP DP  RH WIND       PRES   REMARKS
SCOTTSBLUFF      N/A    N/A N/A N/A MISG      29.96R
ALLIANCE       MOCLDY    43  33  68 W21       29.90R
CHADRON        MOCLDY    36  29  75 SW9       29.89R WCI  29
KIMBALL        CLOUDY    43  31  61 NW15      29.97S
SIDNEY         MOCLDY    46  32  58 NW22      29.95S
$$

NEZ057>060-069>072-079>082-281500-
SOUTHWEST NEBRASKA

CITY           SKY/WX    TMP DP  RH WIND       PRES   REMARKS
NORTH PLATTE   MOCLDY    30  26  85 NW7       29.86R WCI  23
IMPERIAL       MOCLDY    38  28  67 W8        29.91R WCI  32
LEXINGTON      PTCLDY    38  32  77 W15       29.83R WCI  30
MCCOOK         CLEAR     33  28  81 W8        29.86S WCI  26
OGALLALA       MOCLDY    48  35  59 NW18      29.88S
$$

NEZ005>010-023>029-035>040-094-281500-
NORTH CENTRAL NEBRASKA

CITY           SKY/WX    TMP DP  RH WIND       PRES   REMARKS
VALENTINE      MOCLDY    45  31  58 W13       29.77F
AINSWORTH      MOCLDY    45  32  59 W10       29.76F
BROKEN BOW     MOCLDY    52  33  48 NW17      29.79F
O`NEILL        MOCLDY    34  31  92 S8        29.75F WCI  27
ORD            MOCLDY    26  23  88 S5        29.79S WCI  20
THEDFORD       MOCLDY    47  34  59 W12       29.82S
$$

NEZ041-046>049-061>064-073>077-083>087-281500-
SOUTH CENTRAL NEBRASKA

CITY           SKY/WX    TMP DP  RH WIND       PRES   REMARKS
GRAND ISLAND   PTCLDY    26  24  92 SE5       29.80S WCI  20
AURORA         PTCLDY    27  25  94 NW3       29.82R
HASTINGS       PTCLDY    25  22  88 CALM      29.79S
HEBRON         FAIR      31  27  83 NW8       29.81S WCI  24
HOLDREGE       CLEAR     34  28  77 NW8       29.80F WCI  27
KEARNEY *      PTCLDY    30  27  86 NW5       29.79F WCI  25
YORK           CLEAR     32  28  86 SE7       29.79F WCI  26
$$

NEZ011>018-030>034-042>045-281500-
NORTHEAST NEBRASKA

CITY           SKY/WX    TMP DP  RH WIND       PRES   REMARKS
NORFOLK        PTCLDY    29  26  89 SE3       29.80F
ALBION         PTCLDY    27  24  89 CALM      29.81R
BLAIR          CLEAR     34  30  85 SE9       29.85S WCI  27
COLUMBUS *     CLEAR     28  21  74 SE3       29.83F
FREMONT        PTCLDY    34  31  88 SE9       29.84F WCI  27
TEKAMAH        PTCLDY    32  29  88 SE13      29.86F WCI  22
WAYNE          PTCLDY    31  29  90 S5        29.82F WCI  27
$$

NEZ050>053-065>068-078-088>093-281500-
SOUTHEAST NEBRASKA

CITY           SKY/WX    TMP DP  RH WIND       PRES   REMARKS
LINCOLN        CLEAR     31  27  85 SE7       29.85F WCI  24
OMAHA EPPLEY   MOCLDY    34  29  82 SE12      29.88F WCI  25
BEATRICE       FAIR      30  27  90 E3        29.83S
FALLS CITY     CLEAR     34  28  79 SE7       29.88F WCI  28
NEBRASKA CITY  PTCLDY    34  28  79 SE7       29.87S WCI  28
PLATTSMOUTH    PTCLDY    33  29  85 SE12      29.86F WCI  24
$$

NEZ044-045-051>053-067-281500-
OMAHA AREA

CITY           SKY/WX    TMP DP  RH WIND       PRES   REMARKS
OMAHA EPPLEY   MOCLDY    34  29  82 SE12      29.88F WCI  25
BLAIR          CLEAR     34  30  85 SE9       29.85S WCI  27
FREMONT        PTCLDY    34  31  88 SE9       29.84F WCI  27
MILLARD        PTCLDY    33  29  86 SE6       29.86F WCI  28
OFFUTT AFB     CLEAR     32  29  86 E13       29.87F WCI  23
PLATTSMOUTH    PTCLDY    33  29  85 SE12      29.86F WCI  24
WAHOO          FAIR      28  26  89 SE7       29.84F WCI  21
$$


USA.gov is the U.S. government's official web portal to all federal, state and local government web resources and services.